Regional Weather Roundup
Issued by NWS

Home | Current Version | Previous Version | Text Only | Print | Product List | Glossary On
Versions: 1 2 3 4 5 6 7 8 9 10 11 12 13 14 15 16 17 18 19 20 21 22 23 24 25 26 27 28 29 30 31 32 33 34 35 36 37 38 39 40 41 42 43 44 45 46 47 48 49 50
000
ASUS43 KLSX 140407
RWRMO

WEATHER SUMMARY FOR MISSOURI
NATIONAL WEATHER SERVICE SPRINGFIELD MO
1100 PM CDT SUN JUL 13 2014

NOTE: "FAIR" INDICATES FEW OR NO CLOUDS BELOW 12,000 FEET WITH NO
       SIGNIFICANT WEATHER AND/OR OBSTRUCTIONS TO VISIBILITY.
       CURRENT SKY AND/OR WEATHER CONDITIONS ARE NOT AVAILABLE FOR
       CHILLICOTHE AND FARMINGTON.

MOZ001>031-035>038-043-044-053-054-140500-
...NORTHERN AND WESTERN MISSOURI...

CITY           SKY/WX    TMP DP  RH WIND       PRES   REMARKS
KANSAS CTY INT PTCLDY    75  68  78 SW6       30.00R
KANSAS C DTWN  CLEAR     77  69  76 CALM      29.98R
LEE`S SUMMIT   PTCLDY    72  69  90 W3        29.99R
ST JOSEPH      CLEAR     76  72  87 CALM      29.98S
CHILLICOTHE      N/A     73  70  90 CALM      29.97S
KIRKSVILLE     CLEAR     73  69  87 NW5       29.96S

$$
MOZ066>068-077>081-088>096-101>105-140500-
...SOUTHWEST MISSOURI...

CITY           SKY/WX    TMP DP  RH WIND       PRES   REMARKS
SPRINGFIELD    CLOUDY    78  72  81 N6        29.98R THUNDER
JOPLIN         CLOUDY    78  72  81 NE5       29.98S

$$
MOZ032>034-039>042-045>050-055>058-069>072-140500-
...CENTRAL MISSOURI...

CITY           SKY/WX    TMP DP  RH WIND       PRES   REMARKS
COLUMBIA       PTCLDY    72  72 100 CALM      29.97R
JEFFERSON CITY CLOUDY    75  72  90 CALM      29.95R
ROLLA          TSTM      71  70  96 W7        29.99R VSB 1/2
SEDALIA        CLEAR     73  71  93 SW6       29.98R
WHITEMAN AFB   CLEAR     72  68  88 W3        29.98R
OSAGE BEACH    CLOUDY    73  70  88 CALM      29.98R

$$
MOZ051-052-059>065-140500-
...EAST CENTRAL MISSOURI...

CITY           SKY/WX    TMP DP  RH WIND       PRES   REMARKS
ST LOUIS INTL  CLOUDY    78  74  87 SW6       29.95R THUNDER
SPIRIT OF STL  LGT RAIN  75  73  93 SW5       29.94R
ST CHARLES     CLOUDY    75  72  90 S5        29.93R

$$
MOZ072>076-082>087-097>100-106>115-140500-
...SOUTH CENTRAL AND SOUTHEAST MISSOURI...

CITY           SKY/WX    TMP DP  RH WIND       PRES   REMARKS
CAPE GIRARDEAU PTCLDY    82  75  79 S7        29.92F
FARMINGTON     MOCLDY    73  70  88 SE6       29.97S
POPLAR BLUFF   CLEAR     82  72  71 SW7       29.92S
WEST PLAINS    PTCLDY    81  71  71 SW6       29.99R

$$


USA.gov is the U.S. government's official web portal to all federal, state and local government web resources and services.